DLH6LJ EDDF-ENGM

Flight info

Callsign DLH6LJ
Flight time 1h 55m
Altitude 37000
Route MARUN8M/25C MARUN Y150 TOLGI DCT ALASA DCT INVOL DCT SABAK L997 LUNIP LUNIP4L
Aircraft A320/M-SDE3FGHIRWY/LB1

Departure

Time 2026-05-04 13:54
Airport Frankfurt Main Airport (EDDF)

Arrival

Time 2026-05-04 15:49
Airport Oslo-Gardermoen International Airport (ENGM)
Time Latitude Longitude Altitude Speed Heading
2026-05-04 13:23 50.04394 8.57031 360 ft 0 kts 160°
2026-05-04 13:51 50.04363 8.57048 363 ft 10 kts 160°
2026-05-04 13:51 50.04327 8.57108 361 ft 7 kts 85°
2026-05-04 13:51 50.04345 8.57193 362 ft 11 kts 69°
2026-05-04 13:51 50.04370 8.57296 365 ft 9 kts 70°
2026-05-04 13:52 50.04409 8.57458 361 ft 7 kts 69°
2026-05-04 13:52 50.04424 8.57522 361 ft 8 kts 70°
2026-05-04 13:52 50.04416 8.57629 365 ft 13 kts 130°
2026-05-04 13:53 50.04324 8.57693 367 ft 16 kts 160°
2026-05-04 13:53 50.04251 8.57601 366 ft 16 kts 251°
2026-05-04 13:53 50.04175 8.57282 367 ft 62 kts 249°
2026-05-04 13:54 50.03591 8.54842 369 ft 167 kts 249°
2026-05-04 13:54 50.03199 8.53178 1017 ft 165 kts 248°
2026-05-04 13:54 50.02124 8.49975 2145 ft 187 kts 215°
2026-05-04 13:55 50.00859 8.49228 2710 ft 200 kts 198°
2026-05-04 13:55 49.98140 8.47997 4181 ft 207 kts 200°
2026-05-04 13:55 49.96750 8.47358 4898 ft 210 kts 200°
2026-05-04 13:56 49.95336 8.46707 5491 ft 217 kts 199°
2026-05-04 13:56 49.93832 8.46018 5821 ft 236 kts 199°
2026-05-04 13:56 49.90848 8.43761 7163 ft 244 kts 232°
2026-05-04 13:57 49.90155 8.41361 7923 ft 250 kts 261°
2026-05-04 13:57 49.90374 8.38665 8723 ft 261 kts 291°
2026-05-04 13:58 49.95266 8.33911 10316 ft 311 kts 336°
2026-05-04 13:58 49.99726 8.32224 10998 ft 351 kts
2026-05-04 13:58 50.02066 8.33303 11624 ft 355 kts 27°
2026-05-04 13:59 50.04258 8.35121 12327 ft 359 kts 29°
2026-05-04 13:59 50.06458 8.36992 13032 ft 362 kts 30°
2026-05-04 13:59 50.10917 8.40812 14298 ft 370 kts 29°
2026-05-04 14:00 50.13181 8.42745 14889 ft 373 kts 29°
2026-05-04 14:00 50.17776 8.46666 16035 ft 380 kts 29°
2026-05-04 14:00 50.20111 8.48656 16609 ft 384 kts 29°
2026-05-04 14:01 50.22469 8.50667 17183 ft 388 kts 29°
2026-05-04 14:01 50.24853 8.52702 17743 ft 392 kts 29°
2026-05-04 14:01 50.29692 8.56843 18773 ft 400 kts 29°
2026-05-04 14:02 50.32139 8.58948 19265 ft 404 kts 29°
2026-05-04 14:02 50.34610 8.61076 19779 ft 407 kts 28°
2026-05-04 14:02 50.37099 8.63222 20271 ft 410 kts 28°
2026-05-04 14:02 50.38755 8.64651 20598 ft 413 kts 28°
2026-05-04 14:04 50.54555 8.78312 23264 ft 434 kts 28°
2026-05-04 14:04 50.57204 8.80611 23714 ft 436 kts 28°
2026-05-04 14:04 50.59862 8.82926 24095 ft 438 kts 28°
2026-05-04 14:05 50.65217 8.87606 24824 ft 442 kts 28°
2026-05-04 14:05 50.67913 8.89964 25180 ft 445 kts 28°
2026-05-04 14:05 50.70627 8.92337 25528 ft 447 kts 28°
2026-05-04 14:06 50.73348 8.94722 25871 ft 449 kts 28°
2026-05-04 14:06 50.76089 8.97126 26208 ft 452 kts 28°
2026-05-04 14:06 50.78841 8.99544 26541 ft 454 kts 28°
2026-05-04 14:06 50.81607 9.01976 26868 ft 456 kts 28°
2026-05-04 14:07 50.84393 9.04426 27194 ft 459 kts 28°
2026-05-04 14:07 50.87187 9.06884 27526 ft 461 kts 28°
2026-05-04 14:07 50.89995 9.09360 27839 ft 463 kts 28°
2026-05-04 14:07 50.92819 9.11858 28168 ft 466 kts 28°
2026-05-04 14:08 50.95654 9.14367 28479 ft 468 kts 28°
2026-05-04 14:08 50.98505 9.16893 28802 ft 470 kts 28°
2026-05-04 14:08 51.01367 9.19435 29107 ft 472 kts 28°
2026-05-04 14:08 51.04239 9.21993 29405 ft 475 kts 28°
2026-05-04 14:09 51.10072 9.27012 29975 ft 478 kts 22°
2026-05-04 14:09 51.13194 9.28811 30214 ft 478 kts 13°
2026-05-04 14:10 51.19690 9.31111 30679 ft 480 kts
2026-05-04 14:10 51.22961 9.32238 30899 ft 482 kts
2026-05-04 14:10 51.26244 9.33375 31183 ft 482 kts
2026-05-04 14:10 51.29520 9.34515 31501 ft 481 kts
2026-05-04 14:11 51.32787 9.35654 31858 ft 480 kts
2026-05-04 14:11 51.39297 9.37940 32547 ft 478 kts
2026-05-04 14:11 51.42539 9.39078 32883 ft 477 kts
2026-05-04 14:12 51.45774 9.40209 33220 ft 476 kts
2026-05-04 14:12 51.49008 9.41340 33548 ft 475 kts
2026-05-04 14:12 51.55456 9.43607 34203 ft 473 kts
2026-05-04 14:13 51.58674 9.44731 34475 ft 473 kts
2026-05-04 14:13 51.61881 9.45853 34728 ft 472 kts
2026-05-04 14:13 51.65090 9.46980 34981 ft 472 kts
2026-05-04 14:13 51.68292 9.48107 35240 ft 471 kts
2026-05-04 14:14 51.71500 9.49240 35457 ft 471 kts
2026-05-04 14:14 51.77863 9.51503 35891 ft 471 kts
2026-05-04 14:14 51.81063 9.52647 36119 ft 471 kts
2026-05-04 14:15 51.87493 9.53941 36532 ft 464 kts 359°
2026-05-04 14:15 51.93970 9.54790 36924 ft 464 kts 359°
2026-05-04 14:16 52.03537 9.56086 36960 ft 461 kts 360°
2026-05-04 14:17 52.13131 9.57387 36964 ft 461 kts 360°
2026-05-04 14:18 52.22717 9.58696 36967 ft 461 kts 359°
2026-05-04 14:19 52.35504 9.60437 36974 ft 461 kts 359°
2026-05-04 14:19 52.41904 9.61325 36996 ft 462 kts 359°
2026-05-04 14:20 52.48305 9.62215 36992 ft 462 kts 359°
2026-05-04 14:20 52.54707 9.63106 36989 ft 462 kts 359°
2026-05-04 14:21 52.64350 9.64442 37000 ft 461 kts 359°
2026-05-04 14:21 52.70700 9.65322 36991 ft 461 kts 359°
2026-05-04 14:22 52.77084 9.66211 36980 ft 460 kts 359°
2026-05-04 14:22 52.83471 9.67104 36982 ft 461 kts 359°
2026-05-04 14:23 52.93023 9.68446 36997 ft 458 kts 360°
2026-05-04 14:24 52.99370 9.69342 36995 ft 457 kts 360°
2026-05-04 14:24 53.05699 9.70253 36990 ft 456 kts 360°
2026-05-04 14:25 53.12015 9.71149 36986 ft 456 kts 360°
2026-05-04 14:25 53.21485 9.72493 36988 ft 455 kts 360°
2026-05-04 14:26 53.27799 9.73390 36985 ft 455 kts 360°
2026-05-04 14:26 53.34110 9.74289 36997 ft 455 kts 360°
2026-05-04 14:27 53.40414 9.75203 37003 ft 454 kts
2026-05-04 14:27 53.46701 9.76118 37031 ft 453 kts
2026-05-04 14:28 53.52979 9.77025 37032 ft 452 kts
2026-05-04 14:28 53.59244 9.77932 37027 ft 452 kts
2026-05-04 14:29 53.71756 9.79771 37023 ft 451 kts
2026-05-04 14:30 53.78000 9.80685 37017 ft 450 kts
2026-05-04 14:31 53.87362 9.82064 37029 ft 450 kts 360°
2026-05-04 14:32 53.99837 9.83896 36996 ft 450 kts
2026-05-04 14:32 54.06080 9.84827 36993 ft 451 kts 360°
2026-05-04 14:33 54.12328 9.85759 37006 ft 451 kts
2026-05-04 14:33 54.18580 9.86697 37005 ft 451 kts
2026-05-04 14:34 54.24839 9.87642 37006 ft 452 kts
2026-05-04 14:34 54.31103 9.88582 37007 ft 452 kts
2026-05-04 14:35 54.37367 9.89525 37020 ft 452 kts
2026-05-04 14:35 54.42622 9.90313 37012 ft 453 kts
2026-05-04 14:36 54.48855 9.91256 37008 ft 453 kts
2026-05-04 14:36 54.55174 9.92223 37003 ft 453 kts
2026-05-04 14:37 54.61411 9.93180 37022 ft 453 kts
2026-05-04 14:37 54.67734 9.94143 37009 ft 453 kts
2026-05-04 14:38 54.73967 9.95096 37002 ft 453 kts
2026-05-04 14:38 54.80284 9.96104 36997 ft 454 kts
2026-05-04 14:39 54.86449 9.98454 37038 ft 457 kts
2026-05-04 14:39 54.92639 10.01022 37028 ft 457 kts
2026-05-04 14:40 55.01913 10.04847 37016 ft 456 kts
2026-05-04 14:40 55.08090 10.07404 37008 ft 456 kts
2026-05-04 14:41 55.14258 10.09982 37019 ft 456 kts
2026-05-04 14:42 55.26592 10.15136 36983 ft 455 kts
2026-05-04 14:42 55.32755 10.17727 36979 ft 455 kts
2026-05-04 14:43 55.38911 10.20338 36999 ft 455 kts
2026-05-04 14:43 55.45061 10.22944 36987 ft 454 kts
2026-05-04 14:44 55.51202 10.25540 36963 ft 454 kts
2026-05-04 14:44 55.57339 10.28157 36959 ft 453 kts
2026-05-04 14:45 55.63471 10.30779 36958 ft 453 kts
2026-05-04 14:45 55.69602 10.33403 36955 ft 453 kts
2026-05-04 14:46 55.75729 10.36046 36955 ft 453 kts
2026-05-04 14:46 55.81856 10.38705 36954 ft 453 kts
2026-05-04 14:47 55.87972 10.41351 36975 ft 453 kts
2026-05-04 14:47 55.94104 10.44005 36967 ft 453 kts
2026-05-04 14:48 56.00231 10.46662 36955 ft 453 kts
2026-05-04 14:48 56.06345 10.49336 36958 ft 452 kts 10°
2026-05-04 14:49 56.12454 10.52022 36948 ft 452 kts 10°
2026-05-04 14:49 56.18561 10.54727 36964 ft 452 kts 10°
2026-05-04 14:50 56.24660 10.57412 36958 ft 451 kts
2026-05-04 14:50 56.30749 10.60101 36964 ft 451 kts 10°
2026-05-04 14:51 56.36837 10.62814 36958 ft 450 kts 10°
2026-05-04 14:51 56.42920 10.65535 36977 ft 450 kts
2026-05-04 14:52 56.48998 10.68245 36957 ft 450 kts
2026-05-04 14:52 56.55073 10.70955 36947 ft 450 kts
2026-05-04 14:53 56.61143 10.73691 36933 ft 449 kts 10°
2026-05-04 14:53 56.67211 10.76447 36949 ft 450 kts
2026-05-04 14:54 56.73281 10.79202 36942 ft 450 kts
2026-05-04 14:54 56.79354 10.81967 36926 ft 450 kts
2026-05-04 14:55 56.85429 10.84723 36918 ft 450 kts
2026-05-04 14:55 56.91501 10.87501 36942 ft 450 kts
2026-05-04 14:56 56.97579 10.90302 36920 ft 451 kts
2026-05-04 14:56 57.03661 10.93114 36909 ft 451 kts
2026-05-04 14:57 57.09747 10.95938 36903 ft 451 kts
2026-05-04 14:57 57.15834 10.98766 36897 ft 451 kts
2026-05-04 14:58 57.21925 11.01594 36911 ft 452 kts
2026-05-04 14:58 57.28023 11.04426 36892 ft 452 kts
2026-05-04 14:59 57.34128 11.07287 36886 ft 453 kts
2026-05-04 15:00 57.43294 11.11598 36893 ft 453 kts
2026-05-04 15:00 57.49406 11.14491 36900 ft 454 kts
2026-05-04 15:01 57.58589 11.18863 36881 ft 454 kts
2026-05-04 15:01 57.64709 11.21824 36877 ft 456 kts 12°
2026-05-04 15:02 57.70639 11.26275 36907 ft 461 kts 18°
2026-05-04 15:02 57.76644 11.30041 36889 ft 448 kts 359°
2026-05-04 15:03 57.82810 11.30269 36872 ft 443 kts 354°
2026-05-04 15:03 57.88977 11.30317 36863 ft 444 kts 354°
2026-05-04 15:04 57.95157 11.30372 36861 ft 444 kts 354°
2026-05-04 15:04 58.01342 11.30416 36884 ft 444 kts 354°
2026-05-04 15:05 58.07527 11.30466 36875 ft 444 kts 354°
2026-05-04 15:05 58.13698 11.30530 36861 ft 443 kts 354°
2026-05-04 15:06 58.19863 11.30588 36854 ft 443 kts 354°
2026-05-04 15:07 58.29108 11.30661 36845 ft 443 kts 354°
2026-05-04 15:07 58.35270 11.30724 36832 ft 443 kts 354°
2026-05-04 15:08 58.41428 11.30790 36832 ft 443 kts 354°
2026-05-04 15:08 58.47542 11.30846 36830 ft 442 kts 354°
2026-05-04 15:08 58.50627 11.30869 36698 ft 444 kts 354°
2026-05-04 15:09 58.53714 11.30889 36472 ft 444 kts 353°
2026-05-04 15:09 58.56799 11.30920 36221 ft 443 kts 353°
2026-05-04 15:09 58.59878 11.30952 35963 ft 442 kts 353°
2026-05-04 15:10 58.66027 11.31017 35452 ft 442 kts 353°
2026-05-04 15:10 58.69104 11.31047 35205 ft 442 kts 353°
2026-05-04 15:10 58.75246 11.31102 34570 ft 442 kts 353°
2026-05-04 15:11 58.78345 11.31126 33635 ft 449 kts 353°
2026-05-04 15:11 58.81485 11.31149 32673 ft 453 kts 353°
2026-05-04 15:11 58.84645 11.31178 31864 ft 454 kts 352°
2026-05-04 15:11 58.87786 11.31212 31301 ft 449 kts 352°
2026-05-04 15:12 58.90902 11.31248 30643 ft 446 kts 352°
2026-05-04 15:12 58.93991 11.31285 30010 ft 443 kts 352°
2026-05-04 15:12 58.97062 11.31319 29308 ft 439 kts 352°
2026-05-04 15:12 59.00096 11.31355 28699 ft 433 kts 352°
2026-05-04 15:13 59.03088 11.31395 28077 ft 428 kts 352°
2026-05-04 15:13 59.06047 11.31432 27481 ft 423 kts 352°
2026-05-04 15:13 59.08966 11.31463 27013 ft 415 kts 351°
2026-05-04 15:13 59.11803 11.31502 26940 ft 400 kts 351°
2026-05-04 15:14 59.14533 11.31547 26805 ft 386 kts 350°
2026-05-04 15:14 59.17177 11.31647 26669 ft 376 kts 354°
2026-05-04 15:14 59.19767 11.32465 26410 ft 380 kts
2026-05-04 15:14 59.22303 11.33988 25965 ft 381 kts
2026-05-04 15:15 59.24818 11.35568 25487 ft 379 kts
2026-05-04 15:15 59.27318 11.37151 25038 ft 377 kts
2026-05-04 15:15 59.29802 11.38727 24583 ft 374 kts
2026-05-04 15:16 59.34722 11.41855 23696 ft 368 kts
2026-05-04 15:16 59.37142 11.43398 22965 ft 364 kts
2026-05-04 15:16 59.41908 11.46418 21848 ft 357 kts
2026-05-04 15:17 59.44275 11.47908 21382 ft 358 kts
2026-05-04 15:17 59.49002 11.50870 20453 ft 356 kts
2026-05-04 15:17 59.51357 11.52349 19994 ft 355 kts
2026-05-04 15:18 59.53716 11.53833 19536 ft 356 kts
2026-05-04 15:18 59.55271 11.54818 19284 ft 354 kts
2026-05-04 15:18 59.57613 11.56311 18829 ft 352 kts
2026-05-04 15:19 59.62234 11.59273 17829 ft 345 kts
2026-05-04 15:19 59.64502 11.60725 17369 ft 341 kts
2026-05-04 15:19 59.69715 11.64052 16347 ft 337 kts
2026-05-04 15:20 59.71222 11.65013 16046 ft 337 kts
2026-05-04 15:20 59.73448 11.66434 15734 ft 334 kts
2026-05-04 15:20 59.75654 11.67853 15249 ft 333 kts
2026-05-04 15:20 59.77833 11.69263 14828 ft 327 kts
2026-05-04 15:21 59.79993 11.70658 14367 ft 324 kts
2026-05-04 15:21 59.82127 11.72034 13918 ft 321 kts
2026-05-04 15:21 59.86335 11.74745 13034 ft 314 kts 10°
2026-05-04 15:22 59.88397 11.76078 12633 ft 310 kts 11°
2026-05-04 15:22 59.90451 11.77408 12230 ft 310 kts 11°
2026-05-04 15:22 59.94540 11.80057 11541 ft 306 kts 11°
2026-05-04 15:23 59.96564 11.81378 11178 ft 305 kts 11°
2026-05-04 15:23 59.98576 11.82692 10812 ft 305 kts 11°
2026-05-04 15:23 60.00579 11.84001 10481 ft 302 kts 11°
2026-05-04 15:23 60.02577 11.85306 10131 ft 302 kts 11°
2026-05-04 15:24 60.06550 11.87912 9406 ft 300 kts 11°
2026-05-04 15:24 60.10466 11.89132 8970 ft 278 kts 346°
2026-05-04 15:25 60.12306 11.88200 8794 ft 269 kts 331°
2026-05-04 15:25 60.13905 11.86397 8620 ft 261 kts 317°
2026-05-04 15:25 60.15316 11.84120 8424 ft 260 kts 315°
2026-05-04 15:26 60.18148 11.79543 8046 ft 259 kts 316°
2026-05-04 15:26 60.19533 11.77305 7863 ft 259 kts 316°
2026-05-04 15:26 60.22328 11.72763 7479 ft 258 kts 316°
2026-05-04 15:27 60.23725 11.70493 7299 ft 258 kts 316°
2026-05-04 15:27 60.26513 11.65949 6894 ft 259 kts 316°
2026-05-04 15:28 60.29305 11.61388 6515 ft 258 kts 316°
2026-05-04 15:28 60.30695 11.59109 6323 ft 257 kts 317°
2026-05-04 15:28 60.33465 11.54577 5927 ft 255 kts 317°
2026-05-04 15:29 60.34843 11.52314 5741 ft 255 kts 317°
2026-05-04 15:30 60.39975 11.43872 5168 ft 216 kts 315°
2026-05-04 15:30 60.41840 11.36194 4779 ft 209 kts 263°
2026-05-04 15:31 60.41395 11.30389 4406 ft 208 kts 261°
2026-05-04 15:31 60.41176 11.27514 4221 ft 204 kts 261°
2026-05-04 15:32 60.39898 11.20082 3999 ft 186 kts 219°
2026-05-04 15:32 60.37479 11.18382 3950 ft 176 kts 202°
2026-05-04 15:33 60.35192 11.17057 3536 ft 169 kts 202°
2026-05-04 15:34 60.31821 11.15093 2866 ft 166 kts 204°
2026-05-04 15:34 60.30712 11.14448 2636 ft 166 kts 204°
2026-05-04 15:34 60.28535 11.13185 2185 ft 158 kts 202°
2026-05-04 15:35 60.26551 11.12035 1758 ft 144 kts 203°
2026-05-04 15:35 60.25588 11.11475 1554 ft 144 kts 202°
2026-05-04 15:35 60.24634 11.10931 1380 ft 141 kts 205°
2026-05-04 15:36 60.22766 11.09845 991 ft 138 kts 205°
2026-05-04 15:36 60.21837 11.09308 771 ft 139 kts 202°
2026-05-04 15:36 60.20944 11.08792 698 ft 122 kts 200°
2026-05-04 15:37 60.20055 11.08251 1064 ft 148 kts 202°
2026-05-04 15:37 60.19047 11.07665 1967 ft 152 kts 203°
2026-05-04 15:37 60.17982 11.07047 2374 ft 169 kts 202°
2026-05-04 15:37 60.16818 11.06162 2626 ft 188 kts 220°
2026-05-04 15:38 60.15973 11.04084 2988 ft 200 kts 238°
2026-05-04 15:38 60.15112 11.01919 3772 ft 203 kts 233°
2026-05-04 15:38 60.14326 10.99581 4578 ft 203 kts 254°
2026-05-04 15:38 60.14260 10.96739 4931 ft 209 kts 284°
2026-05-04 15:39 60.15036 10.94256 4993 ft 218 kts 316°
2026-05-04 15:39 60.16451 10.93024 5000 ft 232 kts 349°
2026-05-04 15:39 60.19713 10.94213 5005 ft 245 kts 14°
2026-05-04 15:40 60.21326 10.95293 5006 ft 244 kts 11°
2026-05-04 15:40 60.22955 10.96198 5005 ft 243 kts
2026-05-04 15:40 60.24598 10.97056 5004 ft 244 kts
2026-05-04 15:40 60.26247 10.97901 5007 ft 244 kts
2026-05-04 15:41 60.27891 10.98743 5005 ft 244 kts
2026-05-04 15:41 60.29542 10.99594 5002 ft 245 kts
2026-05-04 15:41 60.31194 11.00446 5008 ft 244 kts
2026-05-04 15:41 60.32836 11.01306 5007 ft 243 kts
2026-05-04 15:42 60.34465 11.02183 4998 ft 240 kts
2026-05-04 15:42 60.36062 11.03054 5000 ft 234 kts
2026-05-04 15:42 60.37585 11.03905 4994 ft 221 kts
2026-05-04 15:42 60.39033 11.04735 4996 ft 214 kts
2026-05-04 15:43 60.40459 11.05554 4997 ft 213 kts
2026-05-04 15:43 60.41882 11.06374 4995 ft 213 kts 12°
2026-05-04 15:43 60.43158 11.07976 4989 ft 224 kts 46°
2026-05-04 15:43 60.43836 11.10834 4812 ft 229 kts 83°
2026-05-04 15:44 60.43645 11.13923 4616 ft 224 kts 120°
2026-05-04 15:44 60.42689 11.16255 4408 ft 213 kts 148°
2026-05-04 15:44 60.41513 11.18091 4209 ft 212 kts 155°
2026-05-04 15:44 60.40182 11.19135 4053 ft 202 kts 178°
2026-05-04 15:45 60.38815 11.19132 3991 ft 192 kts 198°
2026-05-04 15:45 60.37554 11.18439 3967 ft 183 kts 203°
2026-05-04 15:45 60.36347 11.17730 3767 ft 181 kts 203°
2026-05-04 15:45 60.35151 11.17032 3532 ft 178 kts 203°
2026-05-04 15:46 60.33964 11.16339 3299 ft 177 kts 202°
2026-05-04 15:46 60.32772 11.15644 3054 ft 180 kts 202°
2026-05-04 15:46 60.31574 11.14948 2812 ft 179 kts 202°
2026-05-04 15:46 60.30383 11.14256 2569 ft 176 kts 204°
2026-05-04 15:47 60.29269 11.13617 2335 ft 155 kts 204°
2026-05-04 15:47 60.28265 11.13034 2124 ft 147 kts 204°
2026-05-04 15:47 60.27303 11.12474 1925 ft 141 kts 203°
2026-05-04 15:47 60.26366 11.11928 1730 ft 139 kts 203°
2026-05-04 15:48 60.25429 11.11380 1514 ft 141 kts 202°
2026-05-04 15:48 60.24490 11.10823 1326 ft 140 kts 203°
2026-05-04 15:48 60.22657 11.09780 959 ft 136 kts 205°
2026-05-04 15:49 60.21743 11.09249 758 ft 137 kts 203°
2026-05-04 15:49 60.20869 11.08735 678 ft 118 kts 198°
2026-05-04 15:49 60.20340 11.08431 683 ft 57 kts 196°
2026-05-04 15:49 60.20002 11.08238 683 ft 44 kts 196°
2026-05-04 15:50 60.19737 11.08112 682 ft 35 kts 184°
2026-05-04 15:50 60.19584 11.08206 682 ft 19 kts 124°
2026-05-04 15:50 60.19551 11.08419 681 ft 14 kts 106°
2026-05-04 15:50 60.19580 11.08559 683 ft 11 kts 16°
2026-05-04 15:51 60.19693 11.08623 683 ft 23 kts 17°
2026-05-04 15:51 60.19819 11.08696 682 ft 14 kts 19°
2026-05-04 15:51 60.19835 11.08841 683 ft 10 kts 105°
2026-05-04 15:51 60.19814 11.08986 687 ft 14 kts 106°
2026-05-04 15:52 60.19790 11.09156 689 ft 13 kts 106°
2026-05-04 15:52 60.19761 11.09354 688 ft 15 kts 105°
2026-05-04 15:52 60.19735 11.09541 690 ft 13 kts 106°
2026-05-04 15:52 60.19713 11.09709 690 ft 12 kts 94°
2026-05-04 15:53 60.19746 11.09826 688 ft 6 kts 92°
2026-05-04 15:53 60.19735 11.09904 688 ft 5 kts 106°
2026-05-04 15:53 60.19727 11.09957 691 ft 1 kts 106°
2026-05-04 15:53 60.19725 11.09974 684 ft 2 kts 106°
2026-05-04 15:54 60.19720 11.10002 685 ft 2 kts 106°
2026-05-04 15:54 60.19720 11.10006 691 ft 0 kts 106°